Location: Eckley Miners' Village
(40.9930°N, 75.8630°W)
Time: 14:58:51
(UTC-05:00)

BlueWalker 3 - Pass Details

Date: 13 December 2023
Orbit: 486 x 500 km, 53.2° (Epoch: 26 February)

Event Time Altitude Azimuth Distance (km) Brightness Sun altitude
Rises 19:37:39 0° 243° (WSW) 2,596 6.4 -33.4°
Reaches altitude 10° 19:39:53 10° 249° (WSW) 1,716 5.4 -33.9°
Enters shadow 19:40:25 13° 251° (WSW) 1,513 5.0 -34.0°
